Location: ??????
(56.0120°N, 39.1740°E)
Time: 07:01:33
(UTC+00:00)

Cosmos 1656 - Pass Details

Date: 14 April 2026
Orbit: 798 x 846 km, 71.1° (Epoch: 12 May)

Event Time Altitude Azimuth Distance (km) Brightness Sun altitude
Rises 20:15:19 0° 324° (NW) 3,317 8.1 -22.8°
Reaches altitude 10° 20:17:48 10° 330° (NNW) 2,385 7.1 -22.9°
Maximum altitude 20:23:08 52° 47° (NE) 996 4.2 -23.2°
Enters shadow 20:25:10 34° 103° (ESE) 1,302 4.4 -23.2°
